Find Flock 4q-28

NORAD ID: 58280 Int'l Des: 2023-174 Owner: PLAN Country: US Constellation: planet operational
LEOCIRCULARRETROGRADESSO

实时位置

正在加载3D地球...

关于 Flock 4q-28

正在加载描述...

即将过境

Passes for default location (London). Set your location on the main map for personalized predictions.

高度历史

Loading altitude history...

两行轨道根数

1 58280U 23174AA 26104.90682655 .00016516 00000-0 28167-3 0 9990
2 58280 97.3888 194.2135 0004656 27.6490 332.5009 15.51415444135928
Epoch: Apr 14, 2026 • Age: 6 hours

当前状态

高度 418.0 km
速度 7.66 km/s
星下点 -19.45°S, 64.32°W
发射日期 Nov 11, 2023
运行时间 2.4 years
类型 earth observation

技术详情

分类 Payload
质量 5.70 kg
干质量 5.70 kg
总质量 5.70 kg
长度 0.30 m
直径 0.10 m
跨度 0.30 m
形状 Box+2 pan
制造商 PLAN
平台类型 Cubesat 3U
阶段状态 In Orbit
所有者/国家 PLAN/US

Most Searched